Location: Unnamed
(48.6007°N, 2.4808°E)
Time: 22:56:01
(UTC+02:00)

CUTE 1.7 + AOD 2 - Pass Details

Date: 08 April 2023
Orbit: 582 x 600 km, 97.7° (Epoch: 31 May)

Event Time Altitude Azimuth Distance (km) Brightness Sun altitude
Rises 05:16:21 0° 17° (NNE) 2,861 ? -18.7°
Reaches altitude 10° 05:18:34 10° 21° (NNE) 1,955 ? -18.4°
Maximum altitude 05:22:45 56° 100° (E) 723 ? -17.8°
Enters shadow 05:26:19 14° 177° (S) 1,713 ? -17.3°
